Stove Prairie

Current Conditions

Time09/18/2020 06:00 PM MST
Location40.619167,-105.356944
Elevation7,349 FT
Air Temp64°F
Surface Temp74°F
Dew Point Temp43°F
PrecipitationNone
Relative Humidity45%
Visibility6,562 FT
Pressure782 MB

Click a photo to enlarge.

154°5 mph
Wind from @ 5 mph

Past 24 Hours

All Data

Previous 24h observations for Stove Prairie
Time Air Temp
(°F)
Surface
(°F)
Dew Point
(°F)
Precip. Relative
Humidity
Wind Direction Wind Speed (mph) Visibility (ft) Pressure
(mb)
06:00 PM647443None45SSE56,562782
05:45 PM657543None43S46,562782
05:30 PM667742None43S66,562782
05:15 PM667942None42S66,562782
05:00 PM668041None41S76,562782
04:45 PM678242None40S56,562782
04:30 PM678341None38S76,562782
04:15 PM688640None34S106,562782
04:00 PM678741None37S106,562782
03:45 PM678542None40SSE76,562782
03:30 PM668643None42S76,562782
03:15 PM678541None40S116,562782
03:00 PM689241None37S76,562782
02:45 PM689141None39S106,562782
02:30 PM689138None36S106,562782
02:15 PM689139None33S96,562783
02:00 PM709637None29S116,562783
01:45 PM6910031None23S96,562783
01:30 PM689736None29S116,562783
01:15 PM689437None32SSE116,562783
01:00 PM669537None32S96,562783
12:45 PM679839None36SSE116,562784
12:30 PM669539None36SSE106,562784
12:15 PM659336None35S126,562784
12:00 PM659237None35S126,562784
11:45 AM659136None34S106,562784
11:30 AM658836None34S116,562784
11:15 AM648437None36S106,562784
11:00 AM648236None36S86,562784
10:45 AM637935None34SSE76,562785
10:30 AM637634None34S66,562785
10:15 AM617432None33S56,562785
10:00 AM607232None36S46,562785
09:45 AM596931None34S56,562785
09:30 AM576634None39S46,562785
09:15 AM566236None47SSE46,562785
09:00 AM566137None50S46,562785
08:45 AM555936None48SSE36,562785
08:30 AM555736None48N06,562785
08:15 AM535635None55E16,562785
08:00 AM515536None56WSW26,562785
07:45 AM505534None55ESE26,562785
07:30 AM495234None55ENE26,562785
07:15 AM495334None54SSE36,562785
07:00 AM495433None53N06,562785
06:45 AM475134None61ENE26,562784
06:30 AM485735None62W26,562784
06:15 AM475436None65NNE16,562785
06:00 AM475536None65NNW26,562785
05:45 AM465236None67N26,562785
05:30 AM455136None72NNW36,562785
05:15 AM475436None68NNE26,562785
05:00 AM475037None67NNE16,562785
04:45 AM475337None67NNW36,562785
04:30 AM475337None68N06,562785
04:15 AM475137None68NE16,562785
04:00 AM485537None67N06,562785
03:45 AM485337None67NNW26,562785
03:30 AM485437None67NNW26,562785
03:15 AM475337None68NW26,562785
03:00 AM475437None68N26,562785
02:45 AM485337None66NE16,562785
02:30 AM495437None63N06,562785
02:15 AM495837None64N06,562786
02:00 AM495638None64N06,562786
01:45 AM495737None64N06,562786
01:30 AM505738None62N06,562786
01:15 AM515838None62E16,562786
01:00 AM515938None61N06,562786
12:45 AM515838None61N06,562786
12:30 AM526038None59SSE16,562786
12:15 AM546039None57N06,562786
12:00 AM546239None57N06,562786
11:45 PM526039None59NE26,562786
11:30 PM525838None60NNE26,562786
11:15 PM536139None59N06,562786
11:00 PM536038None58N26,562786
10:45 PM545938None56NNE16,562786
10:30 PM556139None54NW16,562786
10:15 PM556238None53N06,562786
10:00 PM576238None50NW26,562786
09:45 PM576237None48N26,562786
09:30 PM566335None45N36,562786
09:15 PM566135None45NW36,562786
09:00 PM586235None42NNW26,562786
08:45 PM626837None39E26,562786
08:30 PM626836None39S46,562786
08:15 PM636635None35N06,562785
08:00 PM646834None33E46,562785
07:45 PM646933None31E36,562785
07:30 PM657032None29E46,562785
07:15 PM667032None28SE36,562785
07:00 PM677231None26SE86,562784
06:45 PM677330None25S26,562784
06:30 PM687529None24S26,562784
06:15 PM697430None24S46,562784

Red Feather Lakes

Current Conditions

Time09/18/2020 06:00 PM MST
Location40.790278,-105.574167
Elevation8,238 FT
Air Temp66°F
Surface Temp75°F
Dew Point Temp25°F
PrecipitationNone
Relative Humidity21%
Visibility6,562 FT
Pressure757 MB

Click a photo to enlarge.

165°6 mph
Wind from @ 6 mph

Past 24 Hours

All Data

Previous 24h observations for Red Feather Lakes
Time Air Temp
(°F)
Surface
(°F)
Dew Point
(°F)
Precip. Relative
Humidity
Wind Direction Wind Speed (mph) Visibility (ft) Pressure
(mb)
06:00 PM667525None21SSE66,562757
05:45 PM667724None20SSE76,562757
05:30 PM667625None21SSE66,562757
05:15 PM667724None21SE86,562757
05:00 PM667823None20SE56,562757
04:45 PM678124None19SSE96,562757
04:30 PM678325None20SSE76,562758
04:15 PM678027None22SSE86,562757
04:00 PM678231None25SE56,562758
03:45 PM678532None26SE56,562758
03:30 PM689035None29ESE56,562758
03:15 PM688534None29SSE26,562758
03:00 PM678833None28ENE106,562758
02:45 PM709219None14NNW26,562758
02:30 PM708718None14NW106,562758
02:15 PM709219None15NW36,562758
02:00 PM708818None14NW86,562758
01:45 PM698319None14NW76,562759
01:30 PM709220None15WSW76,562759
01:15 PM688020None16W166,562759
01:00 PM697921None16WNW116,562759
12:45 PM687920None15W116,562759
12:30 PM688420None15WNW136,562759
12:15 PM687620None16W116,562759
12:00 PM687819None15NW136,562759
11:45 AM688020None16W116,562760
11:30 AM677719None16WNW96,562760
11:15 AM677819None16WNW76,562760
11:00 AM698020None15W76,562760
10:45 AM688119None15W66,562760
10:30 AM687719None16SW136,562760
10:15 AM677420None16W106,562760
10:00 AM677122None18WSW106,562760
09:45 AM666722None19W116,562760
09:30 AM666523None20W96,562760
09:15 AM646226None23W86,562760
09:00 AM625728None28SW16,562760
08:45 AM595527None29SW36,562760
08:30 AM585425None28W46,562760
08:15 AM565124None29W66,562760
08:00 AM544924None31WNW46,562760
07:45 AM465523None40WNW36,562760
07:30 AM434824None46W26,562760
07:15 AM424924None49W66,562760
07:00 AM394724None55W46,562760
06:45 AM394724None54WSW36,562759
06:30 AM414624None50W46,562759
06:15 AM434724None47WSW46,562760
06:00 AM434924None47W36,562760
05:45 AM415024None52W36,562759
05:30 AM424825None51W46,562760
05:15 AM424925None50W46,562760
05:00 AM415026None54W46,562760
04:45 AM415026None56W36,562760
04:30 AM404927None60W66,562760
04:15 AM394927None62W66,562760
04:00 AM404928None63W66,562760
03:45 AM394829None65W56,562760
03:30 AM405129None65W76,562760
03:15 AM415129None62W66,562760
03:00 AM415130None64WSW56,562760
02:45 AM425130None64W76,562760
02:30 AM425231None64WSW66,562760
02:15 AM435131None64W56,562760
02:00 AM445533None66W46,562760
01:45 AM425433None68WSW46,562761
01:30 AM435232None65W66,562761
01:15 AM445432None64W46,562761
01:00 AM435432None64W66,562761
12:45 AM445432None62W66,562761
12:30 AM445532None63W46,562761
12:15 AM445632None62W66,562761
12:00 AM445632None60W66,562761
11:45 PM455631None58W56,562761
11:30 PM465831None57W46,562761
11:15 PM465831None55W56,562761
11:00 PM465930None54WSW66,562761
10:45 PM476030None51W56,562761
10:30 PM465929None51WSW56,562761
10:15 PM466028None50W56,562761
10:00 PM466028None49W66,562761
09:45 PM476128None47W56,562761
09:30 PM486228None45W46,562761
09:15 PM496228None44W46,562761
09:00 PM506228None42WSW56,562761
08:45 PM526128None40W66,562761
08:30 PM566529None35W16,562761
08:15 PM576529None33W36,562761
08:00 PM606728None30N06,562760
07:45 PM606928None29ESE46,562760
07:30 PM616929None29ESE56,562760
07:15 PM637129None28ESE86,562760
07:00 PM647328None26ESE46,562760
06:45 PM657428None25ESE36,562760
06:30 PM657627None24ESE46,562760
06:15 PM667827None23SE36,562760

Pinewood Reservoir

Current Conditions

Time09/18/2020 05:45 PM MST
Location40.3647,-105.2867
Elevation6,580 FT
Air Temp69°F
Surface Temp84°F
Dew Point Temp42°F
PrecipitationNone
Relative Humidity38%
Visibility6,562 FT
Pressure798 MB
Level of Grip82.0
State of Surface4.0

Click a photo to enlarge.

174°3 mph
Wind from @ 3 mph

Past 24 Hours

All Data

Previous 24h observations for Pinewood Reservoir
Time Air Temp
(°F)
Surface
(°F)
Dew Point
(°F)
Precip. Relative
Humidity
Wind Direction Wind Speed (mph) Visibility (ft) Pressure
(mb)
Level of GripState Surface
05:45 PM698442None38S36,562798824
05:30 PM698541None35S46,562798824
05:15 PM708841None35E26,562798824
05:00 PM719241None33SW46,562798824
04:45 PM709342None36S46,562798824
04:30 PM709041None36SSE56,562798824
04:15 PM709341None35SE36,562798824
04:00 PM699541None36NE76,562798824
03:45 PM699540None35ESE56,562798824
03:30 PM689441None38ESE56,562798824
03:15 PM679642None40ENE36,562798824
03:00 PM679541None39NE66,562798824
02:45 PM6710142None41NE76,562798824
02:30 PM6710242None41NE76,562799824
02:15 PM6610041None40ENE86,562799824
02:00 PM6610142None40ESE46,562799824
01:45 PM6510043None44ESE56,562799824
01:30 PM6510044None45NE106,562799824
01:15 PM659944None45ENE96,562799824
01:00 PM659944None47NE76,562800824
12:45 PM649843None47ENE66,562800824
12:30 PM639744None51NE66,562800824
12:15 PM629444None51NE66,562800824
12:00 PM629244None51ENE76,562800824
11:45 AM629143None50NE66,562800824
11:30 AM618743None52NE56,562800824
11:15 AM608543None52NE46,562801824
11:00 AM608343None53NE46,562801824
10:45 AM608143None55NE46,562801824
10:30 AM587942None56NE46,562801824
10:15 AM587642None55ENE56,562801824
10:00 AM577442None57ENE46,562801824
09:45 AM567141None56ENE46,562801824
09:30 AM587138None46SE16,562801824
09:15 AM566838None52WSW26,562801824
09:00 AM556438None52WSW46,562801824
08:45 AM556439None55ENE26,562801824
08:30 AM546335None49ENE16,562801824
08:15 AM515937None57SSW26,562801824
08:00 AM505636None58WSW36,562801824
07:45 AM515735None55SW36,562801824
07:30 AM495236None60SW36,562801824
07:15 AM505535None56SW36,562801824
07:00 AM495436None61SSW36,562801824
06:45 AM515237None58WSW46,562801824
06:30 AM525437None56SSW26,562801824
06:15 AM535437None55W36,562801824
06:00 AM535637None54W36,562801824
05:45 AM525537None56SSW26,562801824
05:30 AM525537None57SSW36,562801824
05:15 AM525738None59SW46,562801824
05:00 AM525638None59SW46,562801824
04:45 AM515537None59WSW36,562801824
04:30 AM505538None63SSW36,562801824
04:15 AM515637None59WSW36,562801824
04:00 AM525638None60W46,562801824
03:45 AM505638None64SW36,562801824
03:30 AM525638None61WSW46,562801824
03:15 AM525739None60SSW36,562801824
03:00 AM515738None62SW46,562801824
02:45 AM505738None64SW46,562801824
02:30 AM535839None59SW46,562801824
02:15 AM515839None62SW46,562802824
02:00 AM535939None59SW46,562802824
01:45 AM535939None58W46,562802824
01:30 AM545939None57WSW46,562802824
01:15 AM535939None59SW36,562802824
01:00 AM536039None59SW46,562802824
12:45 AM546039None57WSW46,562802824
12:30 AM566140None54WSW36,562802824
12:15 AM576240None53N06,562802824
12:00 AM586340None51NNE36,562802824
11:45 PM586239None50NE66,562802824
11:30 PM596439None48NNE66,562802824
11:15 PM596439None48NE46,562802824
11:00 PM616440None46ENE56,562802824
10:45 PM626640None45NNW46,562802824
10:30 PM636640None44N46,562802824
10:15 PM636640None43NNW76,562802824
10:00 PM636740None43N66,562802824
09:45 PM636738None39NNE76,562802824
09:30 PM646737None36NNE66,562802824
09:15 PM656936None34NNE86,562802824
09:00 PM656936None33N86,562801824
08:45 PM657035None32NNE76,562801824
08:30 PM657135None32NNE66,562801824
08:15 PM667134None31N56,562801824
08:00 PM677334None30NNE66,562801824
07:45 PM677334None29NNE46,562800824
07:30 PM677533None28NE56,562800824
07:15 PM687629None23NE36,562800824
07:00 PM697629None22WSW26,562800824
06:45 PM717929None21WSW26,562800824
06:30 PM728028None20ESE26,562800824
06:15 PM728228None20SE36,562800824

Masonville

Current Conditions

Time09/18/2020 05:45 PM MST
Location40.4875,-105.2108
Elevation5,387 FT
Air Temp73°F
Surface Temp83°F
Dew Point Temp45°F
PrecipitationNone
Relative Humidity36%
Pressure837 MB

Click a photo to enlarge.

139°1 mph
Wind from @ 1 mph

Past 24 Hours

All Data

Previous 24h observations for Masonville
Time Air Temp
(°F)
Surface
(°F)
Dew Point
(°F)
Precip. Relative
Humidity
Wind Direction Wind Speed (mph) Visibility (ft) Pressure
(mb)
05:45 PM738345None36SE10837
05:30 PM32843236S30837
05:15 PM748644None34SSE46,562837
05:00 PM748644None35SSE46,562838
04:45 PM323232N00838
04:30 PM32323233SSE40838
04:16 PM75914332SSE60838
04:00 PM749244None34SSE46,562838
03:45 PM74923234SSE40838
03:30 PM32943236ESE20838
03:00 PM729144None37ESE20838
02:48 PM729844None37SE46,562838
02:30 PM729844None37S56,562839
02:15 PM719445None40S96,562839
02:00 PM719946None41S86,562839
01:45 PM719645None39SSE66,562839
01:30 PM709946None42S56,562840
01:15 PM32323242SSE50840
01:00 PM699345None43SE50840
12:45 PM689545None43SSE76,562840
12:30 PM679046None46SSW56,562840
12:15 PM669145None47S66,562841
12:00 PM658844None47S66,562841
11:45 AM658942None43SSE56,562841
11:30 AM659043None45SE56,562841
11:15 AM648743None48S56,562841
11:00 AM638444None49SSE76,562842
10:45 AM628244None50S56,562842
10:30 AM628044None52S66,562842
10:15 AM617743None52S46,562842
10:00 AM607542None52SSE36,562842
09:45 AM607342None53SSW46,562842
09:30 AM597043None55S36,562842
09:15 AM596743None55SE16,562842
09:00 AM586644None60SE16,562842
08:45 AM323232N00842
08:30 AM546242None65E26,562842
08:15 AM536141None66ENE16,562842
08:00 AM515940None66ESE26,562842
07:45 AM515939None65N06,562842
07:30 AM495838None66N06,562842
07:15 AM495739None68N06,562842
07:00 AM495738None66N06,562842
06:45 AM495738None66E26,562842
06:30 AM505638None65N06,562842
06:15 AM505738None63NNE16,562842
06:00 AM495839None66N06,562842
05:45 AM505739None65N06,562842
05:30 AM515839None64N06,562842
05:15 AM525839None61W16,562842
05:00 AM525839None62N06,562842
04:45 AM535839None59N06,562842
04:30 AM546039None57NNW36,562842
04:15 AM546039None57NNW46,562842
04:00 AM556040None57NNW26,562842
03:45 AM556040None56NNW36,562842
03:30 AM556140None56NNW46,562842
03:15 AM556140None56NNW46,562842
03:00 AM566140None55NNW46,562842
02:45 AM566240None55N36,562842
02:30 AM566240None54NNW56,562842
02:15 AM566240None53NNW66,562843
02:02 AM576240None52NNW46,562843
01:45 AM576240None52NNW56,562843
01:30 AM586440None51NNW46,562843
01:15 AM32643251NNW30843
01:00 AM586440None51N06,562843
12:45 AM586539None50NW36,562843
12:30 AM586440None51N06,562843
12:15 AM606539None47NNW56,562843
12:00 AM606640None48N06,562843
11:45 PM606539None46N06,562843
11:30 PM32323243N00843
11:15 PM636639None41WNW36,562843
11:00 PM646739None40NNW26,562843
10:45 PM646840None40NW56,562843
10:30 PM646939None40NNW46,562842
10:15 PM656939None39NW76,562842
10:00 PM666940None38NNW56,562842
09:45 PM687040None36NNW46,562842
09:30 PM697141None36NNW36,562842
09:15 PM707240None34NW76,562842
09:01 PM707340None33NNW56,562842
08:45 PM717339None31N26,562842
08:30 PM717438None30NNW46,562841
08:15 PM737438None28NNW56,562841
08:00 PM737637None28NW96,562841
07:45 PM737637None26NW36,562840
07:30 PM757736None24NW56,562840
07:15 PM767936None23NE46,562840
07:00 PM778135None22NE76,562840
06:45 PM768035None23ENE50840
06:01 PM793236None21SSE20839

Page refreshes in :